This is the latest recevied weather packets stored in our database for station/object KD4KKF. If no packets are shown the sender has not sent any weather packets the latest 10 day(s).
| Time | Temp. | Humidity | Pressure | Rain* | Wind** | Luminosity | Snow |
|---|---|---|---|---|---|---|---|
| 1778114934 | 16.67° C | 99% | 1010.6 hPa | 0 mm | - | 0 W/m² | - |
| 1778114631 | 16.67° C | 99% | 1010.4 hPa | 0 mm | - | 0 W/m² | - |
| 1778114328 | 16.67° C | 99% | 1010.6 hPa | 0 mm | - | 3 W/m² | - |
| 1778114023 | 16.67° C | 99% | 1010.4 hPa | 0 mm | - | 7 W/m² | - |
| 1778113719 | 16.67° C | 99% | 1011.1 hPa | 0 mm | - | 7 W/m² | - |
| 1778113415 | 16.67° C | 99% | 1011.3 hPa | 0 mm | - | 10 W/m² | - |
| 1778113113 | 16.67° C | 99% | 1011.3 hPa | 0 mm | - | 12 W/m² | - |
| 1778112809 | 16.67° C | 99% | 1011.1 hPa | 0 mm | - | 14 W/m² | - |
| 1778112506 | 16.11° C | 99% | 1011.3 hPa | 0 mm | - | 13 W/m² | - |
| 1778112201 | 16.11° C | 99% | 1011.3 hPa | 0 mm | - | 11 W/m² | - |
| 1778111898 | 16.11° C | 99% | 1011.5 hPa | 0 mm | - | 14 W/m² | - |
| 1778111594 | 16.11° C | 99% | 1011.4 hPa | 0 mm | - | 12 W/m² | - |
| 1778111286 | 16.67° C | 99% | 1011.8 hPa | 0 mm | - | 9 W/m² | - |
| 1778110983 | 16.67° C | 99% | 1011.7 hPa | 0 mm | - | 10 W/m² | - |
| 1778110681 | 16.67° C | 99% | 1011.9 hPa | 0 mm | - | 9 W/m² | - |
| 1778110376 | 16.67° C | 99% | 1011.7 hPa | 0 mm | - | 16 W/m² | - |
| 1778110073 | 17.22° C | 99% | 1011.4 hPa | 0 mm | - | 13 W/m² | - |
| 1778109768 | 17.22° C | 99% | 1011.5 hPa | 0 mm | - | 19 W/m² | - |
| 1778109465 | 17.22° C | 99% | 1011.8 hPa | 0 mm | - | 26 W/m² | - |
| 1778109164 | 17.22° C | 99% | 1011.6 hPa | 0 mm | - | 36 W/m² | - |
| 1778108855 | 17.78° C | 99% | 1011.5 hPa | 0 mm | - | 30 W/m² | - |
| 1778108552 | 17.78° C | 99% | 1011.7 hPa | 0 mm | - | 16 W/m² | - |
| 1778108248 | 18.33° C | 99% | 1011.3 hPa | 0 mm | - | 17 W/m² | - |
| 1778107946 | 18.33° C | 99% | 1011 hPa | 0 mm | - | 39 W/m² | - |
| 1778107641 | 18.89° C | 99% | 1010.8 hPa | 0 mm | - | 27 W/m² | - |
* Rain latest hour (hover to see other rain measurements)
** Current wind speed in m/s (hover to see current wind gust speed)